| time (UTC) | temp F | wind direction | speed MPH | gust MPH | rain 1hr in | rain 24hr in | rain mn in | humidity % | barometer mb |
| 20260906134617 | 56 | 329 | 3.0 | 8.0 | 0.00 | 0.24 | 0.13 | 1 | 1016.6 |
| 20260906133056 | 55 | 325 | 2.0 | 8.0 | 0.00 | 0.24 | 0.13 | 1 | 1016.6 |
| 20260906131548 | 55 | 328 | 2.0 | 6.0 | 0.00 | 0.24 | 0.13 | 1 | 1016.5 |
| 20260906130100 | 54 | 314 | 3.0 | 6.0 | 0.00 | 0.24 | 0.13 | 1 | 1016.5 |
| 20260906124538 | 54 | 334 | 3.0 | 6.0 | 0.00 | 0.24 | 0.13 | 1 | 1016.5 |
| 20260906123040 | 54 | 360 | 2.0 | 5.0 | 0.00 | 0.24 | 0.13 | 1 | 1016.5 |
| 20260906121541 | 54 | 360 | 1.0 | 4.0 | 0.00 | 0.24 | 0.13 | 1 | 1016.3 |
| 20260906120025 | 54 | 355 | 1.0 | 3.0 | 0.01 | 0.24 | 0.13 | 1 | 1016.2 |
| 20260906114525 | 54 | 360 | 1.0 | 3.0 | 0.02 | 0.24 | 0.13 | 1 | 1016.1 |
| 20260906113016 | 54 | 355 | 2.0 | 4.0 | 0.06 | 0.24 | 0.13 | 1 | 1016.1 |
| 20260906111511 | 54 | 355 | 1.0 | 4.0 | 0.08 | 0.24 | 0.13 | 1 | 1015.9 |
| 20260906110008 | 54 | 360 | 1.0 | 3.0 | 0.07 | 0.23 | 0.12 | 1 | 1015.8 |
| 20260906104502 | 54 | 355 | 0.0 | 5.0 | 0.06 | 0.22 | 0.11 | 1 | 1015.6 |
| 20260906103058 | 54 | 24 | 4.0 | 10.0 | 0.02 | 0.18 | 0.07 | 1 | 1015.6 |
| 20260906101554 | 54 | 101 | 0.0 | 2.0 | 0.00 | 0.16 | 0.05 | 1 | 1015.5 |
| 20260906100049 | 54 | 101 | 0.0 | 0.0 | 0.01 | 0.16 | 0.05 | 1 | 1015.3 |
| 20260906094544 | 54 | 101 | 0.0 | 2.0 | 0.02 | 0.16 | 0.05 | 1 | 1015.1 |
| 20260906093049 | 54 | 101 | 0.0 | 0.0 | 0.03 | 0.16 | 0.05 | 1 | 1015.1 |
| 20260906091535 | 54 | 101 | 0.0 | 0.0 | 0.03 | 0.16 | 0.05 | 1 | 1014.9 |
| 20260906090033 | 54 | 101 | 1.0 | 3.0 | 0.03 | 0.15 | 0.04 | 1 | 1014.8 |
| 20260906084527 | 55 | 101 | 0.0 | 0.0 | 0.02 | 0.14 | 0.03 | 1 | 1014.8 |
| 20260906083024 | 55 | 101 | 0.0 | 3.0 | 0.01 | 0.13 | 0.02 | 1 | 1014.7 |
| 20260906081539 | 55 | 101 | 1.0 | 3.0 | 0.01 | 0.13 | 0.02 | 1 | 1014.8 |
| 20260906080014 | 55 | 101 | 1.0 | 3.0 | 0.00 | 0.12 | 0.01 | 1 | 1014.6 |
| 20260906074508 | 55 | 101 | 2.0 | 6.0 | 0.01 | 0.12 | 0.01 | 1 | 1014.6 |
| 20260906073011 | 56 | 96 | 2.0 | 6.0 | 0.01 | 0.12 | 0.01 | 5 | 1014.7 |
| 20260906071605 | 56 | 150 | 1.0 | 5.0 | 0.01 | 0.12 | 0.01 | 6 | 1014.8 |
| 20260906070118 | 56 | 157 | 2.0 | 7.0 | 0.01 | 0.12 | 0.01 | 8 | 1014.5 |
| 20260906064552 | 57 | 119 | 2.0 | 7.0 | 0.00 | 0.11 | 0.00 | 17 | 1014.3 |
| 20260906063051 | 57 | 91 | 1.0 | 8.0 | 0.00 | 0.11 | 0.00 | 21 | 1014.1 |
| 20260906061602 | 57 | 85 | 4.0 | 10.0 | 0.00 | 0.11 | 0.00 | 25 | 1014.1 |
| 20260906060048 | 58 | 87 | 2.0 | 6.0 | 0.00 | 0.11 | 0.00 | 23 | 1014.2 |
| 20260906054546 | 58 | 96 | 2.0 | 6.0 | 0.00 | 0.11 | 0.00 | 22 | 1014.3 |
| 20260906053050 | 58 | 86 | 2.0 | 6.0 | 0.00 | 0.11 | 0.00 | 23 | 1014.3 |
| 20260906051544 | 58 | 92 | 4.0 | 8.0 | 0.00 | 0.11 | 0.00 | 24 | 1014.2 |
| 20260906050101 | 58 | 59 | 3.0 | 10.0 | 0.00 | 0.11 | 0.00 | 23 | 1014.2 |
| 20260906044539 | 58 | 83 | 2.0 | 10.0 | 0.00 | 0.11 | 0.00 | 23 | 1014.3 |
| 20260906043045 | 58 | 82 | 3.0 | 7.0 | 0.00 | 0.11 | 0.00 | 17 | 1014.3 |
| 20260906041536 | 58 | 88 | 4.0 | 9.0 | 0.00 | 0.11 | 0.00 | 18 | 1014.3 |
| 20260906040034 | 59 | 106 | 2.0 | 9.0 | 0.00 | 0.11 | 0.00 | 19 | 1014.2 |
| 20260906034529 | 59 | 111 | 4.0 | 10.0 | 0.00 | 0.11 | 0.11 | 18 | 1014.1 |
| 20260906033024 | 59 | 84 | 3.0 | 11.0 | 0.00 | 0.11 | 0.11 | 24 | 1014.0 |
| 20260906031518 | 59 | 54 | 4.0 | 11.0 | 0.00 | 0.11 | 0.11 | 17 | 1014.0 |
| 20260906030013 | 59 | 79 | 3.0 | 10.0 | 0.00 | 0.11 | 0.11 | 17 | 1013.9 |
| 20260906024508 | 59 | 113 | 3.0 | 10.0 | 0.00 | 0.11 | 0.11 | 17 | 1014.0 |
| 20260906023004 | 59 | 101 | 2.0 | 6.0 | 0.00 | 0.11 | 0.11 | 7 | 1014.0 |
| 20260906021600 | 59 | 51 | 2.0 | 10.0 | 0.00 | 0.11 | 0.11 | 10 | 1013.9 |
| 20260906020056 | 59 | 71 | 5.0 | 12.0 | 0.00 | 0.11 | 0.11 | 9 | 1013.8 |
| 20260906014606 | 59 | 86 | 3.0 | 11.0 | 0.00 | 0.11 | 0.11 | 1 | 1013.9 |
| 20260906013046 | 59 | 55 | 4.0 | 9.0 | 0.00 | 0.11 | 0.11 | 1 | 1013.8 |
| 20260906011551 | 58 | 72 | 3.0 | 8.0 | 0.00 | 0.11 | 0.11 | 1 | 1013.9 |
| 20260906010038 | 58 | 73 | 2.0 | 4.0 | 0.00 | 0.11 | 0.11 | 1 | 1013.9 |
| 20260906004532 | 58 | 76 | 1.0 | 5.0 | 0.00 | 0.11 | 0.11 | 1 | 1013.9 |
| 20260906003027 | 58 | 71 | 3.0 | 9.0 | 0.00 | 0.11 | 0.11 | 1 | 1013.6 |
| 20260906001522 | 58 | 107 | 1.0 | 6.0 | 0.01 | 0.11 | 0.11 | 1 | 1013.5 |
| 20260906000019 | 58 | 86 | 2.0 | 8.0 | 0.03 | 0.11 | 0.11 | 1 | 1013.4 |
| 20260905234513 | 57 | 123 | 2.0 | 6.0 | 0.03 | 0.11 | 0.11 | 1 | 1013.3 |
| 20260905233011 | 58 | 134 | 3.0 | 8.0 | 0.03 | 0.11 | 0.11 | 1 | 1013.3 |
| 20260905231511 | 58 | 86 | 4.0 | 11.0 | 0.03 | 0.10 | 0.10 | 1 | 1013.3 |
| 20260905230103 | 59 | 80 | 2.0 | 4.0 | 0.01 | 0.08 | 0.08 | 1 | 1013.0 |
| 20260905224605 | 59 | 80 | 1.0 | 4.0 | 0.03 | 0.08 | 0.08 | 1 | 1013.0 |
| 20260905223051 | 60 | 81 | 0.0 | 2.0 | 0.07 | 0.08 | 0.08 | 1 | 1012.9 |
| 20260905221547 | 60 | 81 | 0.0 | 0.0 | 0.07 | 0.07 | 0.07 | 1 | 1012.9 |
| 20260905220042 | 60 | 80 | 0.0 | 0.0 | 0.07 | 0.07 | 0.07 | 1 | 1012.8 |
| 20260905214538 | 61 | 81 | 0.0 | 3.0 | 0.05 | 0.05 | 0.05 | 6 | 1012.5 |
| 20260905213033 | 62 | 69 | 3.0 | 8.0 | 0.01 | 0.01 | 0.01 | 35 | 1012.4 |
| 20260905211528 | 64 | 49 | 3.0 | 10.0 | 0.00 | 0.00 | 0.00 | 54 | 1012.1 |
| 20260905210024 | 64 | 76 | 2.0 | 7.0 | 0.00 | 0.00 | 0.00 | 53 | 1011.9 |
| 20260905204518 | 63 | 126 | 2.0 | 8.0 | 0.00 | 0.00 | 0.00 | 55 | 1011.8 |
| 20260905203014 | 63 | 82 | 3.0 | 9.0 | 0.00 | 0.00 | 0.00 | 47 | 1011.7 |
| 20260905201515 | 64 | 55 | 6.0 | 15.0 | 0.00 | 0.00 | 0.00 | 46 | 1011.6 |
| 20260905200006 | 65 | 59 | 4.0 | 13.0 | 0.00 | 0.00 | 0.00 | 50 | 1011.3 |
| 20260905194604 | 66 | 58 | 5.0 | 12.0 | 0.00 | 0.00 | 0.00 | 57 | 1011.3 |
| 20260905193056 | 66 | 92 | 5.0 | 11.0 | 0.00 | 0.00 | 0.00 | 59 | 1011.3 |
| 20260905191552 | 66 | 64 | 5.0 | 14.0 | 0.00 | 0.00 | 0.00 | 57 | 1011.3 |
| 20260905190053 | 66 | 76 | 8.0 | 12.0 | 0.00 | 0.00 | 0.00 | 48 | 1011.2 |
| 20260905184554 | 67 | 179 | 4.0 | 14.0 | 0.00 | 0.00 | 0.00 | 51 | 1011.1 |
| 20260905183045 | 68 | 92 | 2.0 | 13.0 | 0.00 | 0.00 | 0.00 | 60 | 1010.9 |
| 20260905181534 | 68 | 88 | 6.0 | 10.0 | 0.00 | 0.00 | 0.00 | 62 | 1011.0 |
| 20260905180029 | 68 | 24 | 3.0 | 12.0 | 0.00 | 0.00 | 0.00 | 61 | 1011.0 |
| 20260905174525 | 68 | 24 | 5.0 | 12.0 | 0.00 | 0.00 | 0.00 | 60 | 1011.0 |
| 20260905173022 | 67 | 74 | 4.0 | 12.0 | 0.00 | 0.00 | 0.00 | 58 | 1011.0 |
| 20260905171517 | 66 | 57 | 5.0 | 12.0 | 0.00 | 0.00 | 0.00 | 57 | 1011.0 |
| 20260905170012 | 66 | 41 | 7.0 | 13.0 | 0.00 | 0.00 | 0.00 | 58 | 1011.1 |
| 20260905164508 | 66 | 61 | 7.0 | 14.0 | 0.00 | 0.00 | 0.00 | 58 | 1011.1 |
| 20260905163003 | 66 | 94 | 3.0 | 15.0 | 0.00 | 0.00 | 0.00 | 52 | 1011.2 |
| 20260905161558 | 65 | 82 | 5.0 | 14.0 | 0.00 | 0.00 | 0.00 | 49 | 1011.3 |
| 20260905160057 | 65 | 94 | 5.0 | 11.0 | 0.00 | 0.00 | 0.00 | 48 | 1011.4 |
| 20260905154551 | 65 | 53 | 3.0 | 11.0 | 0.00 | 0.00 | 0.00 | 52 | 1011.4 |
| 20260905153057 | 64 | 69 | 4.0 | 12.0 | 0.00 | 0.00 | 0.00 | 52 | 1011.2 |
| 20260905151544 | 64 | 37 | 4.0 | 12.0 | 0.00 | 0.00 | 0.00 | 52 | 1011.1 |
| 20260905150039 | 65 | 63 | 5.0 | 11.0 | 0.00 | 0.00 | 0.00 | 54 | 1011.1 |
| 20260905144534 | 66 | 78 | 4.0 | 8.0 | 0.00 | 0.00 | 0.00 | 54 | 1011.0 |
| 20260905143034 | 65 | 69 | 3.0 | 9.0 | 0.00 | 0.00 | 0.00 | 52 | 1010.9 |
| 20260905141524 | 65 | 48 | 4.0 | 8.0 | 0.00 | 0.00 | 0.00 | 53 | 1010.8 |
| 20260905140020 | 66 | 79 | 3.0 | 7.0 | 0.00 | 0.00 | 0.00 | 53 | 1010.7 |